Flag for Finland Weather past 2 weeks in Oulu, Finland

Now
30 °F

Light snow. Broken clouds.


Feels Like: 23 °F
Forecast: 20 / 29 °F
Wind: 7 mph from Southeast

Location: Oulu Airport

Current Time: Jan 30, 2015 at 3:06:29 PM

Latest Report: Jan 30, 2015 at 2:20 PM


Visibility: 6 mi

Pressure: 29.18 "Hg

Humidity: 100%

Dew point: 30 °F

Location of OuluLocation

Historic Weather in Oulu — Graph

°F

Oulu temperature yesterday

Maximum temperature yesterday: 34 °F (at 3:20 AM)
Minimum temperature yesterday: 30 °F (at 7:20 PM)
Average temperature yesterday: 32 °F

Past Weeks' High & Low Weather Summary

 TemperatureHumidityPressure
High34 °F (Jan 16, 7:20 PM)100% (Jan 15, 10:20 PM)30.54 "Hg (Jan 15, 10:20 PM)
Low-9 °F (Jan 23, 1:20 AM)77% (Jan 20, 2:20 PM)28.94 "Hg (Jan 28, 8:20 PM)
Average20 °F91%29.76 "Hg
* Reported Jan 15 1:20 PM — Jan 30 1:20 PM, Oulu, Weather by CustomWeather, © 2014

Note: Actual official high and low records may vary slightly from our data, if they occured in-between our weather recording intervals... More about our weather records

Advertising

Oulu weather history for previous 24 hours

 ConditionsComfort  
Time TempWeatherWind HumidityBarometerVisibility
1:20 PM
Jan 30
32 °FLight snow. Mostly cloudy.9 mph93%29.18 "Hg1 mi
12:50 PM30 °FLight snow. Cloudy.9 mph100%29.18 "Hg5 mi
12:20 PM30 °FLight snow. Mostly cloudy.10 mph100%29.18 "HgN/A
11:50 AM30 °FLight snow. Low clouds.12 mph100%29.18 "HgN/A
11:20 AM30 °FMostly cloudy.10 mph100%29.18 "HgN/A
10:50 AM30 °FLight snow. Mostly cloudy.8 mph100%29.15 "Hg6 mi
10:20 AM30 °FLight snow. Cloudy.9 mph100%29.15 "Hg3 mi
9:50 AM30 °FLight snow. More clouds than sun.10 mph93%29.15 "Hg2 mi
9:20 AM30 °FLow clouds.10 mph93%29.15 "HgN/A
8:50 AM30 °FMostly cloudy.10 mph93%29.15 "HgN/A
8:20 AM30 °FMostly cloudy.10 mph93%29.12 "HgN/A
7:50 AM30 °FMostly cloudy.10 mph93%29.12 "HgN/A
7:20 AM30 °FLow clouds.12 mph93%29.12 "HgN/A
6:50 AM30 °FOvercast.12 mph93%29.12 "HgN/A
6:20 AM30 °FLow clouds.12 mph93%29.12 "HgN/A
4:50 AM30 °FMostly cloudy.14 mph93%29.12 "HgN/A
4:20 AM30 °FMostly cloudy.14 mph93%29.12 "HgN/A
3:50 AM30 °FOvercast.15 mph93%29.12 "HgN/A
3:20 AM30 °FMostly cloudy.14 mph93%29.12 "HgN/A
2:50 AM30 °FMostly cloudy.15 mph93%29.12 "HgN/A
2:20 AM30 °FMostly cloudy.13 mph93%29.09 "HgN/A
1:50 AM30 °FOvercast.13 mph93%29.09 "HgN/A
1:20 AM30 °FLow clouds.13 mph93%29.09 "HgN/A
12:50 AM30 °FLight snow. Low clouds.13 mph93%29.09 "HgN/A
12:20 AM30 °FLight snow. Mostly cloudy.14 mph93%29.09 "Hg3 mi
11:50 PM
Jan 29
30 °FLight snow. Overcast.14 mph93%29.09 "Hg2 mi
11:20 PM30 °FLight snow. Overcast.14 mph93%29.09 "Hg2 mi
10:50 PM30 °FLight snow. Overcast.14 mph93%29.09 "Hg2 mi
10:20 PM30 °FLight snow. Mostly cloudy.15 mph93%29.09 "Hg3 mi
9:20 PM30 °FLight snow. Mostly cloudy.15 mph93%29.06 "Hg2 mi
8:50 PM30 °FLight snow. Overcast.15 mph93%29.06 "Hg2 mi
8:20 PM30 °FLight snow. Mostly cloudy.15 mph93%29.06 "Hg2 mi
7:50 PM30 °FLight snow. Mostly cloudy.16 mph93%29.06 "Hg4 mi
7:20 PM30 °FLight snow. Mostly cloudy.14 mph93%29.06 "HgN/A
6:50 PM32 °FLight snow. Overcast.14 mph87%29.06 "HgN/A
6:20 PM32 °FOvercast.12 mph87%29.06 "HgN/A
5:50 PM32 °FOvercast.17 mph87%29.06 "HgN/A
5:20 PM32 °FOvercast.17 mph93%29.06 "HgN/A
4:50 PM32 °FMostly cloudy.16 mph93%29.06 "HgN/A
4:20 PM32 °FLight snow. Mostly cloudy.13 mph100%29.06 "HgN/A
3:50 PM34 °FLight snow. Mostly cloudy.12 mph93%29.06 "HgN/A
3:20 PM34 °FCloudy.12 mph93%29.06 "HgN/A
Weather by CustomWeather, © 2014

See weather overviewHow to use our weather pages